Weather History for New Philadelphia, OH

Change the Weather History Date:

Friday, September 9, 2011

  Actual Average Record
Temperature  
Mean Temperature 68 °F 67 °F  
Max Temperature 77 °F 78 °F 95 °F (2002)
Min Temperature 60 °F 55 °F 37 °F (1986)
Degree Days  
Heating Degree Days 0 1  
Month to date heating degree days 9  
Since 1 July heating degree days 19  
Cooling Degree Days 4 3  
Month to date cooling degree days 33  
Year to date cooling degree days 655  
Growing Degree Days 18 (Base 50)    
Moisture  
Dew Point 60 °F    
Average Humidity 85    
Maximum Humidity 94    
Minimum Humidity 60    
Precipitation  
Precipitation 0.00 in 0.13 in 0.51 in (2008)
Month to date precipitation 1.14  
Year to date precipitation 28.09  
Sea Level Pressure  
Sea Level Pressure 29.94 in    
Wind  
Wind Speed 1 mph (NW)    
Max Wind Speed 7 mph    
Max Gust Speed -    
Visibility 5 miles    
Events      
T = Trace of Precipitation, MM = Missing Value Source: NWS Daily Summary

Daily Weather History Graph

Daily Weather History Graph

Search for Another Location

Airport:

Trip Planner

Search our weather history database for the weather conditions in past years. The results will help you decide how hot, cold, wet, or windy it might be!

Date:

Astronomy

Sep. 09, 2011 Rise Set
Actual Time 7:00 AM EDT 7:45 PM EDT
Civil Twilight 6:32 AM EDT 8:12 PM EDT
Nautical Twilight 6:00 AM EDT 8:45 PM EDT
Astronomical Twilight 5:26 AM EDT 9:18 PM EDT
Moon 6:10 PM EDT (9/9) 4:18 AM EDT (9/9)
Length of Visible Light 13h 39m
Length of Day
12h 44m
Waxing Gibbous, 93% of the Moon is Illuminated
Sep 9
Waxing Gibbous
Sep 12
Full
Sep 20
Last Quarter
Sep 27
New
Oct 3
First Quarter

Hourly Weather History & Observations

Time (EDT) Temp. Dew Point Humidity Pressure Visibility Wind Dir Wind Speed Gust Speed Precip Events Conditions
12:02 AM 62.6 °F 60.8 °F 94% 29.95 in 1.5 mi Calm Calm - N/A   Overcast
12:09 AM 64.4 °F 60.8 °F 88% 29.95 in 2.5 mi Calm Calm - N/A   Overcast
12:32 AM 62.6 °F 60.8 °F 94% 29.95 in 3.0 mi Calm Calm - N/A   Mostly Cloudy
12:34 AM 62.6 °F 60.8 °F 94% 29.95 in 1.8 mi Calm Calm - N/A   Mostly Cloudy
12:38 AM 62.6 °F 60.8 °F 94% 29.95 in 0.8 mi Calm Calm - N/A   Mostly Cloudy
12:49 AM 62.6 °F 60.8 °F 94% 29.95 in 1.2 mi Calm Calm - N/A   Mostly Cloudy
1:08 AM 62.6 °F 60.8 °F 94% 29.95 in 3.0 mi Calm Calm - N/A   Overcast
1:17 AM 64.4 °F 60.8 °F 88% 29.94 in 2.5 mi Calm Calm - N/A   Overcast
1:24 AM 64.4 °F 60.8 °F 88% 29.95 in 3.0 mi Calm Calm - N/A   Overcast
1:53 AM 64.0 °F 61.0 °F 90% 29.94 in 4.0 mi Calm Calm - N/A   Overcast
2:53 AM 64.0 °F 61.0 °F 90% 29.92 in 4.0 mi Calm Calm - 0.00 in   Overcast
3:53 AM 62.1 °F 60.1 °F 93% 29.92 in 4.0 mi Calm Calm - N/A   Mostly Cloudy
4:53 AM 62.1 °F 60.1 °F 93% 29.92 in 4.0 mi Calm Calm - N/A   Overcast
5:19 AM 62.6 °F 59.0 °F 88% 29.92 in 1.8 mi Calm Calm - N/A   Overcast
5:32 AM 60.8 °F 59.0 °F 94% 29.93 in 2.5 mi Calm Calm - N/A   Mostly Cloudy
5:40 AM 62.6 °F 60.8 °F 94% 29.93 in 1.8 mi Calm Calm - N/A   Overcast
5:53 AM 61.0 °F 59.0 °F 93% 29.92 in 0.8 mi Calm Calm - N/A   Mostly Cloudy
6:02 AM 60.8 °F 59.0 °F 94% 29.93 in 1.2 mi Calm Calm - N/A   Overcast
6:07 AM 60.8 °F 59.0 °F 94% 29.93 in 1.0 mi Calm Calm - N/A   Overcast
6:17 AM 62.6 °F 59.0 °F 88% 29.93 in 2.0 mi Calm Calm - N/A   Overcast
6:51 AM 62.6 °F 59.0 °F 88% 29.94 in 3.0 mi Calm Calm - N/A   Overcast
6:53 AM 62.1 °F 59.0 °F 90% 29.93 in 3.0 mi Calm Calm - N/A   Overcast
7:34 AM 62.6 °F 60.8 °F 94% 29.94 in 2.5 mi Calm Calm - N/A   Overcast
7:46 AM 62.6 °F 60.8 °F 94% 29.94 in 3.0 mi NNW 3.5 mph - N/A   Mostly Cloudy
7:53 AM 64.0 °F 61.0 °F 90% 29.94 in 3.0 mi Calm Calm - N/A   Overcast
8:53 AM 64.9 °F 61.0 °F 87% 29.94 in 4.0 mi Calm Calm - N/A   Mostly Cloudy
9:53 AM 66.9 °F 62.1 °F 84% 29.95 in 6.0 mi NNW 4.6 mph - N/A   Haze
10:09 AM 68.0 °F 60.8 °F 78% 29.96 in 7.0 mi NNW 4.6 mph - N/A   Mostly Cloudy
10:53 AM 71.1 °F 62.1 °F 73% 29.94 in 9.0 mi WNW 3.5 mph - N/A   Partly Cloudy
11:38 AM 71.6 °F 60.8 °F 69% 29.95 in 10.0 mi Variable 3.5 mph - N/A   Mostly Cloudy
11:53 AM 71.1 °F 62.1 °F 73% 29.94 in 10.0 mi Calm Calm - N/A   Scattered Clouds
12:53 PM 73.9 °F 61.0 °F 64% 29.93 in 10.0 mi NNW 4.6 mph - N/A   Partly Cloudy
1:53 PM 73.0 °F 60.1 °F 64% 29.92 in 10.0 mi NNW 4.6 mph - N/A   Overcast
2:53 PM 75.0 °F 61.0 °F 62% 29.91 in 10.0 mi WNW 5.8 mph - N/A   Overcast
3:53 PM 77.0 °F 62.1 °F 60% 29.90 in 10.0 mi WNW 6.9 mph - N/A   Partly Cloudy
4:53 PM 75.0 °F 62.1 °F 64% 29.90 in 10.0 mi NW 5.8 mph - N/A   Partly Cloudy
5:53 PM 75.0 °F 61.0 °F 62% 29.91 in 10.0 mi Calm Calm - N/A   Partly Cloudy
6:53 PM 71.1 °F 60.1 °F 68% 29.91 in 10.0 mi Calm Calm - N/A   Clear
7:53 PM 66.0 °F 61.0 °F 84% 29.92 in 10.0 mi Calm Calm - N/A   Clear
8:53 PM 64.0 °F 60.1 °F 87% 29.94 in 10.0 mi Calm Calm - N/A   Clear
10:53 PM 64.0 °F 61.0 °F 90% 29.97 in 9.0 mi Calm Calm - N/A   Mostly Cloudy
11:53 PM 60.1 °F 57.0 °F 90% 29.96 in 6.0 mi Calm Calm - N/A   Clear